Tegucigalpa, Honduras

3:47 AM CST on March 30, 2017 (GMT -0600)
Toncontin International

Weather History for MHTG - February, 2013

Change the Weather History Date:

Wednesday, February 20, 2013

  Actual Average Record
Temperature  
Mean Temperature 72 °F -  
Max Temperature 83 °F 82 °F 93 °F (1998)
Min Temperature 60 °F 59 °F 54 °F (2017)
Cooling Degree Days 6    
Growing Degree Days 22 (Base 50)    
Moisture  
Dew Point 61 °F    
Average Humidity 67    
Maximum Humidity 94    
Minimum Humidity 31    
Precipitation  
Precipitation 0.00 in 0.01 in - ()
Sea Level Pressure  
Sea Level Pressure 30.00 in    
Wind  
Wind Speed 7 mph ()    
Max Wind Speed 14 mph    
Max Gust Speed -    
Visibility 6.5 miles    
Events      
Averages and records for this station are not official NWS values.
T = Trace of Precipitation, MM = Missing Value Source: Averaged Metar Reports

Daily Weather History Graph

Daily Weather History Graph

Search for Another Location

Airport or City:

Trip Planner

Search our weather history database for the weather conditions in past years. The results will help you decide how hot, cold, wet, or windy it might be!

Date:

Astronomy

Feb. 20, 2013 Rise Set
Actual Time 6:09 AM CST 5:55 PM CST
Civil Twilight 5:48 AM CST 6:16 PM CST
Nautical Twilight 5:23 AM CST 6:41 PM CST
Astronomical Twilight 4:58 AM CST 7:06 PM CST
Moon 1:43 PM CST (2/20) 2:02 AM CST (2/20)
Length of Visible Light 12h 28m
Length of Day
11h 45m
Waxing Gibbous, 76% of the Moon is Illuminated
Feb 20
Waxing Gibbous
Feb 25
Full
Mar 4
Last Quarter
Mar 11
New
Mar 19
First Quarter

Hourly Weather History & Observations

Time (CST) Temp. Heat Index Dew Point Humidity Pressure Visibility Wind Dir Wind Speed Gust Speed Precip Events Conditions
12:00 AM 69 °F - 62 °F 74% 29.93 in 6 mi NNE 6.9 mph - -   Haze
12:00 AM 69.8 °F - 62.6 °F 78% 30.09 in 6.2 mi NNE 6.9 mph - N/A   Mostly Cloudy
1:00 AM 69.8 °F - 62.6 °F 78% 30.09 in 6.2 mi NNE 6.9 mph - N/A   Mostly Cloudy
2:00 AM 66.2 °F - 60.8 °F 83% 30.09 in 6.2 mi NNE 6.9 mph - N/A   Mostly Cloudy
3:00 AM 66 °F - 62 °F 81% 29.88 in 6 mi East 3.5 mph - -   Haze
3:00 AM 66.2 °F - 60.8 °F 83% 30.01 in - North - - N/A   Mostly Cloudy
4:00 AM 64.4 °F - 60.8 °F 88% 30.01 in 6.2 mi NNE 6.9 mph - N/A   Scattered Clouds
5:00 AM 64.4 °F - 60.8 °F 88% 30.01 in 6.2 mi NNE 5.8 mph - N/A   Scattered Clouds
6:00 AM 61 °F - 58 °F 88% 29.94 in 9 mi North 4.6 mph - -   Haze
6:00 AM 64.4 °F - 60.8 °F 88% 30.01 in 6.2 mi NNE 5.8 mph - N/A   Scattered Clouds
7:00 AM 62.6 °F - 60.8 °F 94% 30.06 in 6.2 mi NNW 9.2 mph - N/A   Mostly Cloudy
8:00 AM 66.2 °F - 60.8 °F 83% 30.09 in 3.7 mi North 9.2 mph - N/A   Mostly Cloudy
9:00 AM 71 °F - 62 °F 67% 29.94 in 6 mi North 11.5 mph - -   Smoke
9:00 AM 71.6 °F - 62.6 °F 73% 30.09 in 6.2 mi North 11.5 mph - N/A   Mostly Cloudy
10:00 AM 75.2 °F - 60.8 °F 61% 30.12 in 6.2 mi NNE 6.9 mph - N/A   Mostly Cloudy
11:00 AM 78.8 °F - 60.8 °F 54% 30.09 in 6.2 mi ENE 6.9 mph - N/A   Mostly Cloudy
12:00 PM 78 °F - 60 °F 44% 29.86 in 9 mi ENE 3.5 mph - -   Haze
12:00 PM 78.8 °F - 60.8 °F 54% 30.06 in 6.2 mi ENE 10.4 mph - N/A   Mostly Cloudy
1:00 PM 82.4 °F 82.9 °F 60.8 °F 48% 30.04 in 6.2 mi ENE 11.5 mph - N/A   Mostly Cloudy
2:00 PM 80.6 °F 80.8 °F 57.2 °F 45% 30.01 in 6.2 mi ENE 8.1 mph - N/A   Scattered Clouds
3:00 PM 80 °F - 55 °F 31% 29.77 in 9 mi NE 13.8 mph - -   Haze
3:00 PM 78.8 °F - 55.4 °F 44% 29.98 in 6.2 mi NE 13.8 mph - N/A   Scattered Clouds
4:00 PM 82.4 °F 89.5 °F 75.2 °F 79% 29.98 in 6.2 mi ENE 8.1 mph - N/A   Scattered Clouds
5:00 PM 80.6 °F 81.8 °F 62.6 °F 54% 29.98 in 6.2 mi ENE 12.7 mph - N/A   Scattered Clouds
6:00 PM 78 °F - 58 °F 39% 29.77 in 9 mi ENE 9.2 mph - -   Haze
6:00 PM 78.8 °F - 57.2 °F 47% 29.98 in 6.2 mi ENE 9.2 mph - N/A   Scattered Clouds
7:00 PM 75.2 °F - 59.0 °F 57% 30.01 in 6.2 mi ENE 9.2 mph - N/A   Partly Cloudy
8:00 PM 73.4 °F - 59.0 °F 61% 30.04 in 6.2 mi NE 8.1 mph - N/A   Partly Cloudy
9:00 PM 71 °F - 60 °F 61% 29.88 in 7 mi 1.2 mph - -   Haze
9:00 PM 69.8 °F - 60.8 °F 73% 30.06 in 6.2 mi Calm Calm - N/A   Scattered Clouds
10:00 PM 69.8 °F - 59.0 °F 68% 30.06 in 6.2 mi West 3.5 mph - N/A   Mostly Cloudy
11:00 PM 71.6 °F - 62.6 °F 73% 30.06 in 6.2 mi East 4.6 mph - N/A   Mostly Cloudy